Theta_e
335 340 341 331 311 309 304 305 312 310 311 314 316 312 312 315 312 307 328 330 331 331 333 343 345 348 347 345 343 341 341 339 337 336 338 337 336 337 338 338 337 336 338 336 337 337 338 338 337
335 337 334 324 305 300 303 309 308 312 316 316 315 316 315 314 321 323 324 331 330 330 336 340 342 346 346 344 342 341 341 341 338 338 339 337 336 336 335 337 338 336 336 337 337 337 338 337 337
332 331 321 311 305 300 302 309 311 314 318 317 316 321 319 318 322 323 328 330 330 336 337 338 342 345 345 343 342 341 341 341 340 338 338 335 336 335 338 338 337 335 334 335 337 337 337 336 336
331 327 320 306 302 305 307 311 313 315 318 319 320 316 321 324 324 325 331 331 334 337 340 342 344 346 344 342 342 341 341 342 340 337 335 335 334 332 335 336 335 334 336 336 337 337 336 334 334
331 321 308 303 303 307 310 313 316 315 317 318 320 316 318 323 328 330 332 334 336 340 342 345 343 343 343 342 342 341 341 342 340 338 335 334 335 335 336 336 336 335 335 336 336 335 334 334 333
316 316 303 300 303 306 311 315 314 315 317 319 318 317 318 325 327 328 333 335 339 339 341 343 337 339 340 341 341 340 342 342 340 338 336 335 336 336 336 336 335 335 335 336 335 334 333 332 331
311 309 301 302 302 304 308 314 313 315 316 318 322 316 318 322 329 330 333 337 339 340 341 341 341 337 334 337 337 339 341 340 339 337 335 336 336 337 336 336 335 335 335 335 333 332 331 330 328
314 310 302 303 301 302 309 311 314 315 315 322 324 315 316 322 329 330 332 335 337 339 340 339 340 337 336 339 332 334 336 336 336 335 333 331 333 334 333 332 335 335 335 333 331 330 329 327 325
310 303 298 301 302 304 309 307 312 317 316 319 321 320 321 326 329 329 330 332 333 335 336 337 336 334 336 340 335 330 330 330 330 330 327 328 332 332 331 328 332 334 332 331 329 328 325 322 320
307 300 300 305 307 306 309 308 309 310 314 317 319 320 324 326 326 325 325 327 330 330 332 334 333 332 334 336 338 338 335 335 333 333 332 331 331 331 329 326 328 329 328 328 327 324 320 321 323
309 302 305 304 307 308 307 307 309 307 309 315 317 318 322 324 324 324 325 326 329 330 330 332 331 331 332 333 335 336 336 335 333 333 331 331 330 330 330 333 331 328 323 325 325 324 324 323 321
303 307 308 307 308 307 305 308 307 308 310 312 317 323 322 321 322 324 324 326 328 329 329 330 331 330 330 332 332 333 334 333 332 331 330 330 329 329 328 330 329 325 326 326 325 324 322 320 319
303 305 308 308 308 310 309 307 307 308 312 313 316 321 321 321 323 325 326 327 327 327 328 329 330 330 329 330 331 331 332 331 330 329 330 329 329 328 328 329 330 329 327 325 323 320 319 317 316
298 301 303 304 305 307 306 307 309 309 314 312 314 316 321 320 322 323 325 325 326 327 326 329 329 329 329 329 330 330 330 330 329 328 329 330 330 330 329 328 328 328 326 324 322 319 316 314 314
297 295 300 301 303 304 307 302 304 311 312 310 311 316 318 321 324 323 324 324 326 327 327 327 328 329 328 327 329 329 330 329 327 327 329 330 330 330 330 328 328 327 326 323 321 318 315 313 310
291 293 288 294 301 302 303 295 303 310 310 309 311 312 315 320 322 323 325 325 327 327 326 326 327 329 328 328 328 329 329 329 327 327 329 330 330 331 330 327 326 326 324 323 320 317 314 311 309
288 284 287 289 298 299 301 296 302 307 307 308 310 311 312 316 321 323 324 325 327 328 326 325 326 327 327 328 328 328 329 329 328 328 329 330 330 330 330 328 327 325 323 321 319 317 314 310 306
284 283 284 286 295 297 292 294 300 305 307 307 308 310 312 313 317 323 324 325 326 327 327 326 325 326 326 327 328 328 329 330 329 328 328 330 330 329 329 327 326 325 322 320 318 315 313 311 306
285 284 283 286 291 289 291 294 298 303 305 306 309 310 311 312 318 321 325 326 326 326 326 326 324 324 325 324 324 326 325 327 329 329 328 329 330 329 329 326 325 324 322 320 318 313 308 306 305
287 285 285 288 289 288 288 287 292 296 300 303 306 308 310 311 316 319 323 326 327 327 327 326 325 325 324 325 327 327 326 328 329 328 327 328 329 329 328 326 324 324 321 319 316 311 307 305 304
286 285 285 284 287 289 287 285 288 292 295 298 302 306 311 311 312 318 319 324 328 327 327 326 325 324 325 327 328 327 326 326 325 325 324 326 328 328 328 327 325 324 322 318 315 312 308 304 303
283 288 286 285 283 280 288 279 287 291 291 293 296 299 306 311 313 315 319 319 325 327 328 327 327 326 325 328 327 324 322 320 321 323 325 325 327 327 327 326 325 324 322 319 317 313 311 308 300
285 289 286 286 284 283 283 280 284 290 288 291 296 301 303 306 311 313 318 320 324 327 328 328 327 327 327 327 327 325 323 324 324 324 324 323 324 327 326 325 324 323 322 319 317 313 312 309 304
290 286 286 286 283 276 282 281 282 286 288 291 295 297 302 308 310 313 318 322 321 326 328 328 328 328 328 328 327 326 324 324 324 324 323 323 323 325 325 324 324 323 321 318 317 315 313 310 308
287 284 278 276 276 275 284 281 283 289 292 292 293 296 300 308 311 312 314 320 320 322 326 327 326 325 327 327 327 327 326 326 324 323 324 323 322 320 321 323 322 319 318 319 318 316 314 312 307
286 284 278 272 273 277 284 278 283 292 294 295 295 297 300 303 309 312 314 318 320 320 324 325 325 324 326 326 326 327 327 327 326 325 325 324 322 320 322 321 321 318 315 316 318 316 315 313 311
285 281 287 279 280 277 281 285 290 293 292 294 294 296 298 300 305 311 314 316 319 321 320 323 324 324 324 325 325 326 327 327 326 326 326 325 324 322 322 322 320 319 316 316 317 316 314 313 312
287 289 280 281 272 272 278 280 282 286 288 291 292 294 298 301 303 305 308 314 317 320 322 322 324 324 325 324 324 325 326 326 328 327 324 323 323 323 321 320 319 319 317 314 314 314 314 312 311
285 283 284 284 281 275 274 278 287 287 289 290 290 293 296 298 302 305 308 312 316 319 321 322 322 322 323 324 323 324 325 326 326 325 324 323 323 323 320 319 318 318 315 313 311 312 312 311 310
288 285 284 279 277 280 278 278 288 288 288 289 290 291 294 296 296 299 303 306 310 314 321 322 321 321 322 323 322 323 324 325 324 324 323 323 322 321 319 318 317 316 314 312 309 309 308 308 306
Wind_Speed
5 5 4 5 6 5 8 4 3 4 4 2 7 3 4 3 2 4 5 5 16 18 17 16 14 16 19 19 18 17 16 18 17 17 16 15 14 11 14 15 15 12 13 13 14 13 15 16 16
7 2 3 2 6 9 8 6 7 5 3 8 7 5 4 3 3 7 12 9 18 17 17 16 12 15 19 19 19 17 16 16 18 15 16 15 13 12 11 14 15 12 13 14 13 16 16 17 17
5 1 4 4 7 12 7 8 8 2 8 6 5 2 1 4 5 12 6 17 18 17 17 17 13 20 20 19 18 17 17 15 17 15 15 15 13 12 12 15 15 14 12 13 14 17 17 16 17
3 4 4 7 12 12 11 1 4 8 5 4 3 4 3 3 7 7 15 18 17 16 16 17 18 20 20 19 17 16 17 16 16 16 15 14 13 11 9 14 14 13 13 12 17 18 16 15 17
2 3 8 8 14 8 9 5 5 8 5 7 6 5 3 3 6 14 17 15 15 15 16 18 19 19 19 18 17 16 15 17 16 14 14 13 13 11 11 12 14 13 12 14 17 18 16 17 18
5 4 9 15 14 10 9 5 6 8 7 6 6 7 5 3 11 18 17 14 15 15 17 18 15 15 17 18 17 16 14 16 16 16 13 13 14 11 13 13 12 13 13 16 17 18 16 17 18
9 7 14 15 12 16 9 5 10 9 9 9 2 8 4 8 12 18 16 12 14 14 14 17 17 15 11 12 12 12 12 13 16 16 12 11 11 10 11 10 12 13 16 17 16 16 16 17 17
5 6 14 13 13 16 3 5 4 11 9 3 6 7 5 13 17 18 15 11 12 12 13 16 16 16 15 13 8 7 11 13 13 13 11 10 10 9 8 7 10 16 18 17 16 17 17 17 16
2 8 13 18 13 12 2 3 1 4 4 3 5 2 1 21 21 19 16 12 11 11 14 13 14 15 14 14 11 9 11 12 13 12 10 11 9 9 9 8 12 17 17 17 16 16 17 16 14
10 13 15 6 10 12 8 8 10 5 7 6 4 3 13 22 22 22 22 17 15 16 16 14 14 14 14 11 14 13 12 10 10 10 12 8 9 8 8 9 14 15 14 15 15 14 13 7 6
12 17 13 6 10 13 13 10 4 6 8 9 10 10 17 23 21 20 21 21 19 17 14 16 15 14 15 12 11 8 7 7 8 11 10 9 7 8 6 9 8 9 9 7 9 8 5 6 5
12 15 11 14 15 11 8 6 11 8 9 6 8 12 18 21 22 22 23 23 21 17 17 16 16 14 14 10 10 10 9 8 8 9 11 9 6 8 7 6 8 7 4 7 6 5 7 8 8
13 10 8 5 4 10 10 14 15 15 13 9 3 10 17 18 18 19 18 18 20 17 18 16 16 15 14 13 10 10 10 9 9 10 10 9 9 8 7 7 7 7 6 6 6 7 6 7 8
4 7 11 9 8 8 10 17 14 13 13 9 2 8 13 18 17 15 19 20 22 19 16 17 17 15 15 13 13 11 9 10 9 9 10 11 9 8 8 7 6 6 6 6 7 7 7 6 7
3 9 11 14 15 14 8 21 23 17 18 19 15 6 9 13 17 21 14 17 19 18 16 16 14 15 15 15 13 11 10 10 9 9 12 12 10 10 9 7 7 7 6 8 8 8 7 6 6
3 6 10 10 17 9 15 26 11 12 19 22 23 16 12 14 19 18 16 16 17 19 19 15 12 15 15 15 12 10 10 10 9 9 9 12 11 11 9 7 7 8 8 8 8 8 7 7 6
4 6 9 10 10 9 18 15 8 14 18 16 17 18 16 15 16 18 18 17 18 18 20 17 15 17 16 15 12 12 13 10 10 10 10 13 12 11 9 8 8 10 8 8 8 7 8 7 6
4 5 5 10 0 13 21 20 19 15 11 14 20 20 17 17 18 18 19 17 18 19 19 20 15 18 17 10 11 10 10 11 10 10 11 13 10 12 10 8 9 10 8 8 8 9 7 7 8
3 6 10 6 7 10 16 18 18 12 13 18 19 17 16 17 16 15 19 19 18 20 22 22 19 16 12 10 12 11 12 11 11 10 13 13 12 13 12 9 10 10 10 11 11 9 11 7 8
13 14 16 16 16 14 17 23 19 22 17 18 17 20 21 18 17 16 19 20 24 23 22 21 22 20 15 12 12 11 11 11 11 9 11 14 14 14 12 12 11 12 9 12 12 12 10 4 10
13 14 13 14 11 15 17 27 25 26 23 21 22 22 21 21 19 16 18 22 24 22 22 20 21 21 20 19 12 10 10 8 10 11 11 13 15 14 13 14 12 13 11 11 14 13 14 8 10
14 7 13 13 9 7 0 12 14 13 20 22 22 23 23 22 22 17 18 20 22 23 20 21 19 19 20 21 16 18 13 12 11 12 11 11 16 14 15 15 14 14 11 13 12 12 12 10 9
7 8 9 12 14 13 19 10 7 14 19 23 18 20 23 25 24 24 19 19 20 18 19 20 20 19 21 21 20 16 16 12 9 10 14 14 13 15 14 15 15 14 11 11 14 15 14 11 9
2 7 12 9 9 9 18 16 14 17 19 22 18 21 21 22 24 24 19 18 16 16 17 18 21 23 22 22 22 21 20 17 12 13 12 11 10 11 14 15 14 14 13 13 12 14 16 13 11
12 5 4 7 8 9 7 14 20 18 19 24 22 19 23 19 20 23 21 19 18 20 21 19 21 22 22 22 21 22 21 19 18 16 13 14 11 11 14 16 15 13 12 12 13 13 14 14 12
15 15 6 7 6 8 6 11 15 19 21 21 23 20 21 15 17 21 22 20 19 19 20 20 21 21 21 21 23 21 21 14 15 17 13 12 12 13 17 16 15 15 13 13 13 11 12 13 12
4 12 6 3 5 7 10 16 12 11 4 9 8 8 10 10 10 19 20 19 18 17 19 21 22 21 20 22 18 19 18 20 18 19 16 12 13 11 15 17 17 17 16 15 15 11 13 13 13
2 3 3 4 5 9 7 7 5 12 13 11 11 10 10 6 5 5 9 17 15 16 15 17 18 20 21 19 17 18 19 19 18 16 17 17 14 15 16 17 17 17 17 16 16 13 13 14 11
5 5 7 4 6 4 5 4 2 6 10 9 9 12 11 10 9 8 7 6 10 11 12 16 18 20 18 17 17 17 17 17 16 15 16 17 16 17 17 17 17 17 17 16 16 16 15 17 16
11 7 12 5 4 5 7 8 7 8 8 8 12 8 10 12 12 12 11 12 11 8 8 13 14 16 16 15 15 16 15 16 16 18 17 16 17 15 16 16 16 16 16 17 18 19 17 18 17
Wind_Direction
309 330 298 235 230 240 235 222 306 194 193 136 138 186 205 15 262 7 133 113 140 150 153 166 154 153 143 135 134 136 137 127 126 122 121 116 110 102 107 111 105 99 98 88 87 90 90 84 76
322 341 244 273 240 222 223 214 225 226 87 134 143 143 181 114 86 110 142 157 151 151 154 161 155 154 140 139 138 142 137 131 127 128 121 109 112 105 104 107 110 108 100 92 90 92 92 84 80
280 317 261 248 233 230 243 208 221 127 146 164 156 280 127 108 118 150 117 155 153 155 156 145 156 149 141 142 143 144 139 140 127 126 119 119 113 115 92 108 105 100 105 96 97 97 87 84 80
268 186 197 242 229 231 243 132 167 151 183 215 235 174 138 20 143 144 149 154 158 159 160 139 151 148 144 145 146 146 149 141 134 128 129 123 124 118 122 108 106 107 99 100 101 94 90 86 82
208 236 231 234 241 257 236 243 189 182 177 187 192 159 130 114 129 142 150 153 157 162 155 152 146 147 146 148 150 152 161 145 132 133 133 130 129 130 115 106 106 108 105 105 104 97 91 83 78
203 273 228 230 228 235 255 256 217 225 194 159 196 163 129 131 155 153 148 160 156 153 153 147 143 144 148 151 154 161 156 150 139 126 132 131 130 125 122 113 114 116 110 105 104 99 95 88 82
238 225 238 251 248 238 243 266 234 225 203 197 128 180 113 171 163 157 151 155 152 152 153 156 155 148 145 152 157 163 160 147 132 128 139 127 123 122 116 120 120 116 109 107 107 100 98 93 85
230 244 240 233 238 245 208 243 296 238 222 68 180 184 173 180 167 157 154 154 153 160 160 163 160 161 160 162 140 148 142 130 128 124 126 123 112 107 104 122 133 119 117 116 112 108 97 90 84
161 229 235 232 233 231 192 274 269 331 207 204 193 305 40 145 164 155 160 160 164 171 171 169 165 167 165 162 149 133 127 129 116 122 120 144 140 144 152 65 123 114 119 118 116 110 102 94 82
202 225 242 232 257 258 256 299 294 285 225 204 197 60 138 154 171 168 174 173 174 176 179 176 173 171 169 163 163 156 150 154 154 156 161 157 148 138 114 104 107 116 112 115 116 114 104 110 106
206 233 226 233 251 260 263 273 286 282 257 253 232 161 162 165 179 184 183 183 180 178 181 182 177 173 174 171 171 168 171 167 163 163 164 156 148 151 139 131 127 122 118 127 131 140 117 105 100
241 228 252 244 245 265 256 298 263 267 269 15 355 174 172 182 188 191 189 184 178 179 183 185 178 177 178 172 180 174 176 173 170 170 169 162 163 161 152 151 137 138 151 138 136 120 114 106 97
239 246 248 231 284 275 273 265 268 268 274 304 338 173 192 203 203 193 196 191 184 181 185 186 179 183 182 180 180 179 181 182 175 170 175 173 169 168 162 157 162 156 156 150 140 134 129 116 106
353 295 272 274 272 269 275 266 260 259 256 277 276 239 211 206 212 212 197 195 189 181 182 186 185 185 183 185 182 180 181 181 178 176 179 182 177 172 168 167 170 162 163 158 148 143 134 121 114
266 278 264 247 239 248 263 256 241 246 255 263 262 255 232 222 211 216 217 207 194 191 177 185 183 183 190 190 186 185 182 180 184 182 182 184 183 180 176 169 166 164 164 156 144 139 137 125 116
251 234 245 230 221 233 223 256 242 240 247 249 253 250 235 219 217 217 211 213 208 194 186 183 186 189 186 192 186 192 187 185 186 188 185 190 192 189 186 167 170 162 164 164 159 156 146 137 133
222 261 240 274 234 250 223 266 240 254 253 261 260 251 249 240 218 212 208 202 209 205 192 186 192 191 190 196 187 198 196 193 189 191 194 193 195 193 187 180 168 167 170 175 165 164 158 146 132
245 233 241 253 84 243 249 255 260 263 256 263 258 256 243 243 228 210 200 193 203 209 202 194 192 197 194 188 194 198 198 201 198 197 198 195 195 191 188 180 172 176 173 174 172 163 164 157 144
311 296 284 287 309 299 262 266 260 238 262 248 253 259 256 252 242 206 199 193 188 201 206 205 191 192 186 189 191 194 201 200 204 205 202 199 198 192 191 182 176 183 182 179 173 158 153 147 149
260 263 264 272 258 269 281 272 259 257 254 258 255 257 259 256 244 211 202 196 199 195 201 201 203 190 188 191 196 203 199 204 207 203 202 204 200 196 192 186 184 188 183 180 176 169 163 147 181
245 257 258 259 296 272 281 278 264 253 254 247 253 258 252 248 249 225 211 204 206 201 200 197 198 200 195 196 194 196 195 202 203 202 206 204 203 197 195 195 189 191 189 186 184 183 178 169 193
275 238 254 267 265 260 78 282 279 248 245 242 242 247 250 243 243 244 221 214 209 207 201 201 198 199 201 198 192 191 191 197 203 204 208 200 202 199 196 198 196 194 194 194 190 190 193 179 180
257 262 258 266 257 267 252 261 267 239 247 248 240 237 245 242 239 237 223 212 216 207 203 201 200 199 202 200 199 194 202 209 195 202 200 200 201 202 198 198 198 199 199 197 191 194 200 194 181
217 231 256 263 248 235 241 221 273 245 243 264 249 236 239 244 241 235 216 209 209 202 203 201 201 205 202 203 202 200 205 204 198 195 195 195 197 199 201 199 200 202 198 195 195 198 201 200 200
214 181 216 219 209 251 258 225 240 276 243 246 263 250 238 241 239 233 220 207 205 200 202 201 205 209 205 203 204 207 207 205 202 199 199 193 196 197 202 200 200 200 198 198 199 201 204 205 204
203 202 212 245 244 287 235 239 240 247 262 264 269 273 256 266 260 236 225 210 210 202 197 199 202 209 207 205 208 208 207 208 206 207 202 203 200 199 197 202 203 201 198 202 203 204 209 206 210
141 210 211 289 217 258 252 261 275 351 204 315 326 308 276 266 290 246 226 217 214 206 204 200 202 205 207 211 207 212 211 212 208 210 206 205 203 199 197 198 203 201 201 202 202 208 208 205 209
241 115 171 164 273 271 255 323 308 342 323 330 338 359 331 332 333 305 286 227 220 212 207 212 213 210 208 206 212 212 210 215 214 207 203 204 203 200 197 196 204 203 203 202 203 209 209 207 210
170 198 222 248 228 280 295 265 240 322 322 351 355 16 353 9 19 11 353 328 238 221 207 206 211 215 213 208 209 215 215 213 216 214 209 207 204 202 201 199 202 205 203 203 203 210 208 209 212
226 224 206 214 234 252 304 284 354 16 22 17 28 13 22 38 34 31 36 34 35 19 238 213 214 215 215 212 208 213 215 213 213 216 210 208 209 205 206 204 206 207 206 204 205 209 208 209 209